Terminal Aerodrome Forecast
Issued by NWS Blacksburg, VA

Home | Current Version | Previous Version | Text Only | Print | Product List | Glossary On
Versions: 1 2 3 4 5 6 7 8 9 10 11 12 13 14 15 16 17 18 19 20 21 22 23 24 25 26 27 28 29 30 31 32 33 34 35 36 37 38 39 40
000
FTUS41 KRNK 301242 AAA
TAFLYH
TAF AMD
KLYH 301242Z 3013/0112 00000KT 1SM BR OVC002
     FM301330 00000KT 3SM BR OVC002
     FM301415 VRB03KT P6SM BKN005
     FM301500 VRB03KT P6SM SCT015
     FM301800 VRB03KT P6SM SCT035
     FM010800 00000KT 3SM BR SCT070=

USA.gov is the U.S. government's official web portal to all federal, state and local government web resources and services.